Location: Most
(50.5133°N, 13.6207°E)
Time: 20:53:18
(UTC+02:00)

ISS - Pass Details

Date: 21 May 2025
Orbit: 415 x 416 km, 51.6° (Epoch: 16 June)

Event Time Altitude Azimuth Distance (km) Brightness Sun altitude
Rises 22:15:03 0° 286° (WNW) 2,362 1.1 -10.1°
Reaches altitude 10° 22:17:11 10° 282° (WNW) 1,496 -0.2 -10.3°
Maximum altitude 22:20:27 51° 205° (SSW) 528 -3.5 -10.7°
Enters shadow 22:22:47 17° 133° (SE) 1,125 -2.2 -10.9°
